Hourly Weather Beclean

Today, 24 October, Saturday

Time Temperature Precipitation Wind Pressure Humidity
00:00 +11°C° 0 mm 0 mps 731 mmHg 70%
01:00 +10°C° 0 mm 0 mps 731 mmHg 70%
02:00 +10°C° 0 mm 0 mps 731 mmHg 71%
03:00 +10°C° 0 mm 0 mps 730 mmHg 71%
04:00 +10°C° 0 mm 0 mps 730 mmHg 72%
05:00 +10°C° 0 mm 0 mps 730 mmHg 72%
06:00 +10°C° 0 mm 0 mps 730 mmHg 71%
07:00 +12°C° 0 mm 1 mps 730 mmHg 71%
08:00 +12°C° 0 mm 1 mps 730 mmHg 70%
09:00 +13°C° 0 mm 1 mps 730 mmHg 65%
10:00 +15°C° 0 mm 1 mps 730 mmHg 59%
11:00 +16°C° 0 mm 1 mps 730 mmHg 54%
12:00 +16°C° 0 mm 1 mps 731 mmHg 55%
13:00 +16°C° 0 mm 1 mps 731 mmHg 55%
14:00 +16°C° 0 mm 1 mps 731 mmHg 56%
15:00 +16°C° 0 mm 1 mps 731 mmHg 58%
16:00 +15°C° 0 mm 1 mps 731 mmHg 60%
17:00 +15°C° 0 mm 1 mps 730 mmHg 62%
18:00 +14°C° 0 mm 1 mps 731 mmHg 64%
19:00 +14°C° 0 mm 1 mps 731 mmHg 67%
20:00 +13°C° 0 mm 1 mps 731 mmHg 69%
21:00 +13°C° 0 mm 1 mps 731 mmHg 71%
22:00 +13°C° 0 mm 1 mps 731 mmHg 74%
23:00 +13°C° 0 mm 1 mps 731 mmHg 76%

Tomorrow, 25 October, Sunday

Time Temperature Precipitation Wind Pressure Humidity
00:00 +13°C° 0 mm 1 mps 731 mmHg 76%
01:00 +13°C° 0 mm 1 mps 731 mmHg 77%
02:00 +13°C° 0 mm 1 mps 731 mmHg 77%
03:00 +13°C° 0.7 mm 1 mps 730 mmHg 82%
04:00 +13°C° 0.7 mm 1 mps 730 mmHg 87%
05:00 +12°C° 0.7 mm 1 mps 730 mmHg 92%
06:00 +13°C° 0.8 mm 1 mps 730 mmHg 91%
07:00 +13°C° 0.8 mm 1 mps 730 mmHg 91%
08:00 +13°C° 0.8 mm 1 mps 730 mmHg 91%
09:00 +14°C° 0 mm 1 mps 730 mmHg 85%
10:00 +15°C° 0 mm 1 mps 730 mmHg 79%
11:00 +18°C° 0 mm 1 mps 730 mmHg 73%
12:00 +18°C° 0.1 mm 1 mps 730 mmHg 74%
13:00 +16°C° 0.1 mm 1 mps 729 mmHg 75%
14:00 +16°C° 0.1 mm 2 mps 729 mmHg 77%
15:00 +16°C° 0 mm 1 mps 729 mmHg 78%
16:00 +15°C° 0 mm 1 mps 729 mmHg 80%
17:00 +14°C° 0 mm 0 mps 728 mmHg 82%
18:00 +13°C° 0.1 mm 0 mps 729 mmHg 83%
19:00 +14°C° 0.1 mm 1 mps 729 mmHg 84%
20:00 +14°C° 0.1 mm 1 mps 729 mmHg 84%
21:00 +14°C° 0.4 mm 1 mps 729 mmHg 87%
22:00 +14°C° 0.4 mm 1 mps 729 mmHg 90%
23:00 +13°C° 0.4 mm 1 mps 729 mmHg 92%

Day after tomorrow, 26 October, Monday

Time Temperature Precipitation Wind Pressure Humidity
00:00 +13°C° 0.2 mm 1 mps 729 mmHg 92%
01:00 +13°C° 0.2 mm 1 mps 729 mmHg 93%
02:00 +13°C° 0.2 mm 1 mps 729 mmHg 93%
03:00 +13°C° 0 mm 1 mps 729 mmHg 92%
04:00 +13°C° 0 mm 1 mps 729 mmHg 91%
05:00 +12°C° 0 mm 0 mps 729 mmHg 90%
06:00 +12°C° 0 mm 0 mps 729 mmHg 90%
07:00 +12°C° 0 mm 0 mps 729 mmHg 89%
08:00 +12°C° 0 mm 0 mps 729 mmHg 89%
09:00 +14°C° 0 mm 1 mps 729 mmHg 84%
10:00 +15°C° 0 mm 1 mps 729 mmHg 80%
11:00 +16°C° 0 mm 2 mps 729 mmHg 75%
12:00 +18°C° 0 mm 1 mps 729 mmHg 71%
13:00 +19°C° 0 mm 1 mps 729 mmHg 68%
14:00 +19°C° 0 mm 1 mps 729 mmHg 64%
15:00 +18°C° 0 mm 1 mps 729 mmHg 69%
16:00 +15°C° 0 mm 0 mps 728 mmHg 73%
17:00 +14°C° 0 mm 0 mps 728 mmHg 77%
18:00 +14°C° 0 mm 0 mps 729 mmHg 80%
19:00 +13°C° 0 mm 0 mps 729 mmHg 82%
20:00 +13°C° 0 mm 1 mps 729 mmHg 85%
21:00 +13°C° 0 mm 1 mps 729 mmHg 86%
22:00 +13°C° 0 mm 1 mps 729 mmHg 86%
23:00 +12°C° 0 mm 1 mps 729 mmHg 87%

, 27 October, Tuesday

Time Temperature Precipitation Wind Pressure Humidity
00:00 +12°C° 0 mm 1 mps 729 mmHg 87%
01:00 +12°C° 0 mm 1 mps 729 mmHg 88%
02:00 +11°C° 0 mm 1 mps 729 mmHg 88%
03:00 +11°C° 0 mm 1 mps 729 mmHg 88%
04:00 +11°C° 0 mm 1 mps 729 mmHg 88%
05:00 +11°C° 0 mm 1 mps 729 mmHg 88%
06:00 +11°C° 0 mm 1 mps 729 mmHg 87%
07:00 +11°C° 0 mm 1 mps 729 mmHg 87%
08:00 +11°C° 0 mm 1 mps 729 mmHg 86%
09:00 +13°C° 0 mm 1 mps 729 mmHg 78%
10:00 +15°C° 0 mm 1 mps 729 mmHg 70%
11:00 +18°C° 0 mm 1 mps 729 mmHg 63%
12:00 +19°C° 0 mm 1 mps 729 mmHg 59%
13:00 +20°C° 0 mm 1 mps 729 mmHg 56%
14:00 +21°C° 0 mm 1 mps 729 mmHg 52%
15:00 +19°C° 0 mm 1 mps 729 mmHg 57%
16:00 +18°C° 0 mm 1 mps 729 mmHg 62%
17:00 +15°C° 0 mm 0 mps 728 mmHg 67%
18:00 +14°C° 0 mm 0 mps 729 mmHg 68%
19:00 +14°C° 0 mm 1 mps 729 mmHg 70%
20:00 +14°C° 0 mm 1 mps 729 mmHg 71%
21:00 +13°C° 0 mm 1 mps 729 mmHg 72%
22:00 +13°C° 0 mm 1 mps 729 mmHg 74%
23:00 +13°C° 0 mm 1 mps 729 mmHg 75%

27 October, Tuesday

Time Temperature Precipitation Wind Pressure Humidity
00:00 +12°C° 0 mm 1 mps 729 mmHg 87%
01:00 +12°C° 0 mm 1 mps 729 mmHg 88%
02:00 +11°C° 0 mm 1 mps 729 mmHg 88%
03:00 +11°C° 0 mm 1 mps 729 mmHg 88%
04:00 +11°C° 0 mm 1 mps 729 mmHg 88%
05:00 +11°C° 0 mm 1 mps 729 mmHg 88%
06:00 +11°C° 0 mm 1 mps 729 mmHg 87%
07:00 +11°C° 0 mm 1 mps 729 mmHg 87%
08:00 +11°C° 0 mm 1 mps 729 mmHg 86%
09:00 +13°C° 0 mm 1 mps 729 mmHg 78%
10:00 +15°C° 0 mm 1 mps 729 mmHg 70%
11:00 +18°C° 0 mm 1 mps 729 mmHg 63%
12:00 +19°C° 0 mm 1 mps 729 mmHg 59%
13:00 +20°C° 0 mm 1 mps 729 mmHg 56%
14:00 +21°C° 0 mm 1 mps 729 mmHg 52%
15:00 +19°C° 0 mm 1 mps 729 mmHg 57%
16:00 +18°C° 0 mm 1 mps 729 mmHg 62%
17:00 +15°C° 0 mm 0 mps 728 mmHg 67%
18:00 +14°C° 0 mm 0 mps 729 mmHg 68%
19:00 +14°C° 0 mm 1 mps 729 mmHg 70%
20:00 +14°C° 0 mm 1 mps 729 mmHg 71%
21:00 +13°C° 0 mm 1 mps 729 mmHg 72%
22:00 +13°C° 0 mm 1 mps 729 mmHg 74%
23:00 +13°C° 0 mm 1 mps 729 mmHg 75%

28 October, Wednesday

Time Temperature Precipitation Wind Pressure Humidity
00:00 +12°C° 0 mm 1 mps 729 mmHg 77%
01:00 +12°C° 0 mm 1 mps 729 mmHg 79%
02:00 +12°C° 0 mm 1 mps 729 mmHg 80%
03:00 +11°C° 0 mm 0 mps 729 mmHg 82%
04:00 +10°C° 0 mm 0 mps 729 mmHg 83%
05:00 +10°C° 0 mm 0 mps 729 mmHg 84%
06:00 +10°C° 0 mm 0 mps 729 mmHg 84%
07:00 +11°C° 0 mm 0 mps 730 mmHg 83%
08:00 +11°C° 0 mm 0 mps 730 mmHg 83%
09:00 +13°C° 0 mm 1 mps 730 mmHg 76%
10:00 +15°C° 0 mm 1 mps 730 mmHg 70%
11:00 +18°C° 0 mm 1 mps 730 mmHg 64%
12:00 +18°C° 0 mm 1 mps 730 mmHg 61%
13:00 +19°C° 0 mm 1 mps 730 mmHg 59%
14:00 +20°C° 0 mm 1 mps 730 mmHg 56%
15:00 +18°C° 0 mm 1 mps 730 mmHg 61%
16:00 +15°C° 0 mm 0 mps 730 mmHg 66%
17:00 +14°C° 0 mm 0 mps 730 mmHg 71%
18:00 +13°C° 0 mm 0 mps 730 mmHg 74%
19:00 +12°C° 0 mm 0 mps 730 mmHg 77%
20:00 +12°C° 0 mm 0 mps 730 mmHg 80%
21:00 +11°C° 0 mm 0 mps 730 mmHg 81%
22:00 +11°C° 0 mm 0 mps 730 mmHg 83%
23:00 +11°C° 0 mm 0 mps 731 mmHg 85%

29 October, Thursday

Time Temperature Precipitation Wind Pressure Humidity
00:00 +10°C° 0 mm 0 mps 731 mmHg 85%
01:00 +10°C° 0 mm 0 mps 730 mmHg 86%
02:00 +10°C° 0 mm 0 mps 730 mmHg 87%
03:00 +10°C° 0 mm 0 mps 731 mmHg 87%
04:00 +9°C° 0 mm 0 mps 731 mmHg 88%
05:00 +9°C° 0 mm 0 mps 731 mmHg 88%
06:00 +9°C° 0 mm 0 mps 731 mmHg 88%
07:00 +9°C° 0 mm 0 mps 731 mmHg 88%
08:00 +10°C° 0 mm 0 mps 731 mmHg 88%
09:00 +11°C° 0 mm 0 mps 731 mmHg 81%
10:00 +13°C° 0 mm 0 mps 732 mmHg 74%
11:00 +15°C° 0 mm 0 mps 732 mmHg 67%
12:00 +16°C° 0 mm 1 mps 732 mmHg 64%
13:00 +18°C° 0 mm 1 mps 732 mmHg 61%
14:00 +18°C° 0 mm 2 mps 732 mmHg 58%
15:00 +17°C° 0 mm 2 mps 732 mmHg 65%
16:00 +15°C° 0 mm 2 mps 732 mmHg 71%
17:00 +14°C° 0 mm 2 mps 732 mmHg 77%
18:00 +13°C° 0 mm 2 mps 733 mmHg 81%
19:00 +13°C° 0 mm 1 mps 733 mmHg 85%
20:00 +12°C° 0 mm 1 mps 733 mmHg 89%
21:00 +12°C° 0 mm 1 mps 734 mmHg 89%
22:00 +11°C° 0 mm 1 mps 734 mmHg 90%
23:00 +11°C° 0 mm 1 mps 735 mmHg 91%
Show more

We Need Your Consent

Meteoprog and our Service Providers may store and access personal data such as cookies, device identifiers or other similar technologies on your device and process such data to personalise content and ads, as well as provide social media features and to analyse the traffic.

  • Store and/or access information on your device

    Cookies, device identifiers or other information can be stored or accessed on your device for the purposes indicated above.

  • Personalised ads and content, ad and content measurement, audience insights, and products development

    Ads and content can be personalised based on a profile. More data can be added to better personalise ads and content. Ad and content performance can be measured. Insights about the audience who saw the ads and content can be derived. Such data can be used to develop or improve user’s experience, systems and software.

By clicking ‘I Agree’ you will allow the use of indicated cookies, device identifiers, web beacons or other similar technologies. Your settings can be changed in the browser on your device.

For certain purposes, legitimate interests may be relied on, rather than consent. You can read more about this in our Privacy and Cookie Policy.